Baltimore Martin, MD

4:12 PM EDT on June 26, 2017 (GMT -0400)
Martin State

Weather History for KMTN - July, 2013

Change the Weather History Date:

Wednesday, July 3, 2013

  Actual Average Record
Temperature  
Mean Temperature 80 °F -  
Max Temperature 86 °F 82 °F 93 °F (1997)
Min Temperature 73 °F 66 °F 57 °F (2001)
Cooling Degree Days 14    
Growing Degree Days 30 (Base 50)    
Moisture  
Dew Point 74 °F    
Average Humidity 90    
Maximum Humidity 94    
Minimum Humidity 79    
Precipitation  
Precipitation 0.00 in - - ()
Sea Level Pressure  
Sea Level Pressure 30.22 in    
Wind  
Wind Speed 6 mph (SSE)    
Max Wind Speed 12 mph    
Max Gust Speed -    
Visibility 10 miles    
Events Rain , Thunderstorm    
Averages and records for this station are not official NWS values.
T = Trace of Precipitation, MM = Missing Value Source: NWS Daily Summary

Daily Weather History Graph

Daily Weather History Graph

Search for Another Location

Airport or City:

Trip Planner

Search our weather history database for the weather conditions in past years. The results will help you decide how hot, cold, wet, or windy it might be!

Date:

Astronomy

Jul. 03, 2013 Rise Set
Actual Time 5:43 AM EDT 8:35 PM EDT
Civil Twilight 5:11 AM EDT 9:07 PM EDT
Nautical Twilight 4:31 AM EDT 9:48 PM EDT
Astronomical Twilight 3:44 AM EDT 10:34 PM EDT
Moon 2:19 AM EDT (7/3) 4:45 PM EDT (7/3)
Length of Visible Light 15h 56m
Length of Day
14h 52m
Waning Crescent, 18% of the Moon is Illuminated
Jul 3
Waning Crescent
Jul 8
New
Jul 15
First Quarter
Jul 22
Full
Jul 29
Last Quarter

Hourly Weather History & Observations

Time (EDT) Temp. Heat Index Dew Point Humidity Pressure Visibility Wind Dir Wind Speed Gust Speed Precip Events Conditions
12:12 AM 73.4 °F - 71.6 °F 94% 30.20 in 10.0 mi South 5.8 mph - N/A   Clear
12:30 AM 73.4 °F - 71.6 °F 94% 30.20 in 10.0 mi South 6.9 mph - N/A   Clear
12:51 AM 73.4 °F - 71.6 °F 94% 30.20 in 10.0 mi South 5.8 mph - N/A   Clear
1:12 AM 73.4 °F - 71.6 °F 94% 30.21 in 10.0 mi South 5.8 mph - N/A Rain Light Rain
1:30 AM 73.4 °F - 71.6 °F 94% 30.21 in 10.0 mi SSE 5.8 mph - N/A   Light Drizzle
1:51 AM 73.4 °F - 71.6 °F 94% 30.21 in 10.0 mi SSE 5.8 mph - N/A   Scattered Clouds
2:12 AM 73.4 °F - 71.6 °F 94% 30.20 in 10.0 mi SSE 5.8 mph - N/A   Mostly Cloudy
2:30 AM 73.4 °F - 71.6 °F 94% 30.20 in 10.0 mi South 5.8 mph - N/A   Mostly Cloudy
2:51 AM 73.4 °F - 71.6 °F 94% 30.19 in 10.0 mi SSE 5.8 mph - N/A   Scattered Clouds
3:12 AM 73.4 °F - 71.6 °F 94% 30.19 in 10.0 mi SSE 5.8 mph - N/A   Clear
3:33 AM 73.4 °F - 71.6 °F 94% 30.19 in 10.0 mi South 4.6 mph - N/A   Clear
3:51 AM 73.4 °F - 71.6 °F 94% 30.20 in 10.0 mi South 4.6 mph - N/A   Clear
4:12 AM 73.4 °F - 71.6 °F 94% 30.20 in 10.0 mi South 5.8 mph - N/A Rain Light Rain
4:33 AM 73.4 °F - 71.6 °F 94% 30.20 in 10.0 mi SSE 4.6 mph - N/A Rain Rain
4:51 AM 73.4 °F - 71.6 °F 94% 30.20 in 10.0 mi SSE 6.9 mph - N/A Rain Light Rain
5:12 AM 73.4 °F - 71.6 °F 94% 30.20 in 10.0 mi South 6.9 mph - N/A   Scattered Clouds
5:30 AM 73.4 °F - 71.6 °F 94% 30.21 in 10.0 mi South 5.8 mph - N/A   Clear
5:50 AM 75.2 °F - 71.6 °F 89% 30.21 in 10.0 mi South 4.6 mph - N/A   Mostly Cloudy
6:45 AM 75.2 °F - 73.4 °F 94% 30.22 in 10.0 mi Calm Calm - N/A   Overcast
7:50 AM 75.2 °F - 73.4 °F 94% 30.24 in 10.0 mi South 5.8 mph - N/A   Overcast
8:45 AM 77.0 °F - 75.2 °F 94% 30.25 in 10.0 mi South 6.9 mph - N/A   Mostly Cloudy
9:45 AM 78.8 °F - 75.2 °F 89% 30.25 in 4.0 mi SSW 6.9 mph - N/A Rain Light Rain
10:45 AM 77.0 °F - 75.2 °F 94% 30.25 in 5.0 mi South 5.8 mph - N/A Rain Light Rain
11:45 AM 78.8 °F - 77.0 °F 94% 30.25 in 7.0 mi SSE 10.4 mph - N/A   Overcast
12:45 PM 80.6 °F 86.2 °F 75.2 °F 84% 30.24 in 10.0 mi SE 6.9 mph - N/A   Overcast
1:55 PM 84.2 °F 96.1 °F 78.8 °F 84% 30.22 in 10.0 mi SSE 9.2 mph - N/A   Scattered Clouds
2:55 PM 82.4 °F 90.9 °F 77.0 °F 84% 30.21 in 10.0 mi SSE 11.5 mph - N/A   Mostly Cloudy
3:45 PM 86.0 °F 99.3 °F 78.8 °F 79% 30.21 in 10.0 mi SSE 9.2 mph - N/A   Mostly Cloudy
4:45 PM 84.2 °F 94.1 °F 77.0 °F 79% 30.20 in 10.0 mi South 10.4 mph - N/A Thunderstorm Mostly Cloudy
5:45 PM 86.0 °F 99.3 °F 78.8 °F 79% 30.19 in 10.0 mi SSE 9.2 mph - N/A   Mostly Cloudy
6:45 PM 82.4 °F 92.4 °F 78.8 °F 89% 30.21 in 10.0 mi SSE 11.5 mph - N/A   Mostly Cloudy
7:45 PM 82.4 °F 90.9 °F 77.0 °F 84% 30.20 in 10.0 mi SSE 11.5 mph - N/A   Mostly Cloudy
8:55 PM 80.6 °F 87.1 °F 77.0 °F 89% 30.21 in 10.0 mi South 8.1 mph - N/A   Scattered Clouds
10:15 PM 78.8 °F - 75.2 °F 89% 30.24 in 10.0 mi SSE 5.8 mph - N/A   Clear
10:33 PM 78.8 °F - 73.4 °F 83% 30.24 in 10.0 mi South 5.8 mph - N/A   Clear
10:54 PM 78.8 °F - 73.4 °F 83% 30.25 in 10.0 mi SSE 5.8 mph - N/A   Clear
11:15 PM 78.8 °F - 73.4 °F 83% 30.24 in 10.0 mi SSE 5.8 mph - N/A   Clear
11:33 PM 78.8 °F - 73.4 °F 83% 30.25 in 10.0 mi SSE 6.9 mph - N/A   Clear
11:54 PM 77.0 °F - 73.4 °F 89% 30.25 in 10.0 mi South 6.9 mph - N/A   Clear